Weather in Ananyino

Russia / Perm Krai     56°36′38″N   56°04′02″E
temp.,
°C
wind,
m/s
gust,
m/s
humid.,
%
clouds,
%
prec.,
mm/h
press.,
hPa
HPBL,
m
9 december, thu
thu923:00−5s61494100 3.8 1032427
02:00−5s61392100 0.0 1032394
05:00−5s51393100 0.0 1032356
08:00−6s51292100 0.0 1032308
11:00−6s41288100 0.0 1032302
14:00−5s51281100 0.0 1031368
17:00−5s51277100 0.0 1029334
20:00−5s51378100 0.0 1028368
10 december, fri
fri1023:00−5s41280100 0.0 1027323
02:00−5ssw41184100 0.0 1026293
05:00−5ssw3989100 0.0 1026254
08:00−6ssw1494100 0.0 102699
11:00−5sw239679 1.2 1027146
14:00−5nw129731 0.1 102876
17:00−10n229863 0.1 103018
20:00−12nne49965 0.0 1032156
11 december, sat
sat1123:00−15nne412945 0.0 1034231
02:00−15nne513915 0.0 1035257
05:00−16nne514925 0.0 1037266
08:00−16ne514905 0.0 1038276
11:00−15ne514925 0.0 1039263
14:00−11nne412885 0.0 1039284
17:00−13nne49895 0.0 1040153
20:00−14nne410895 0.0 1041141
12 december, sun
sun1223:00−15nne389159 0.0 1041128
02:00−16nne26925 0.0 104276
05:00−18nne24955 0.0 104357
08:00−19nne22975 0.0 104412
11:00−18nnw11955 0.0 104516
14:00−10nw12859 0.0 104467
17:00−14nw119297 0.0 10459
20:00−16wnw119359 0.0 104510
13 december, mon
mon1323:00−17w119339 0.0 104510
02:00−17wsw119442 0.0 104510
05:00−18wsw119580 0.0 104510
08:00−19sw119681 0.0 104410
11:00−18sw229653 0.0 104430
14:00−12sw248747 0.0 1043110
17:00−17sw229568 0.0 104314
20:00−19wsw1196100 0.0 10429